Tracking 29892 objects as of 21-Nov-2024
HD Live streaming from Space Station
objects crossing your sky now

ONEWEB-0366

Track ONEWEB-0366 now!
10-day predictions
ONEWEB-0366 is classified as:


NORAD ID: 49292
Int'l Code: 2021-090P
Perigee: 1,211.5 km
Apogee: 1,214.3 km
Inclination: 87.9 °
Period: 109.5 minutes
Semi major axis: 7583 km
RCS: Unknown
Launch date: October 14, 2021
Source: United Kingdom (UK)
Launch site: VOSTOCHNY COSMODROME (VOSTO)
Your satellite tracking list
Your tracking list is empty




NASA's NSSDC Master Catalog

Two Line Element Set (TLE):
1 49292U 21090P   24325.20332814  .00000166  00000-0  41239-3 0  9992
2 49292  87.9029  43.8570 0001870 101.8502 258.2837 13.14503234153452
Source of the keplerian elements: AFSPC